[[{"header":{"parameterUnit":"m.s-1","parameterCategory":2,"la1":30.2991,"la2":30.254,"lo1":-89.0895,"lo2":-89.0444,"dy":0.0017,"dx":0.0017,"nx":28,"ny":28,"refTime":"2024-04-24T21:00:00:Z","depth":"0","parameterNumber":2,"parameterNumberName":"U-component_of_CURRENTS"},"data":[0,0,0,0,0,0,0,0,0,0,0,0,0,0,0,0,0,0,0,0,0,0,0,0,0,0,0,0,0,0,0,0,0,0,0,0,0,0,0,0,0,0,0,0,0,0,0,0,0,0,0,0,0,0,0,0,0,0,0.2454,0.2454,0,0.2446,0.2445,0.2445,0.2421,0.242,0.242,0.2419,0.241,0.241,0.241,0,0,0,0,0,0,0,0,0,0,0,0,0,0.2477,0.2476,0.2454,0.2454,0.2454,0.2446,0.2445,0.2445,0.2421,0.242,0.242,0.2419,0.241,0.241,0.241,0,0,0,0,0,0,0,0,0,0,0,0,0,0.2466,0.2476,0.2454,0.2442,0.2441,0.2446,0.2445,0.2445,0.2421,0.242,0.242,0.2419,0.241,0.241,0.241,0.2423,0,0,0.2411,0.2411,0,0,0,0,0,0,0,0,0.2467,0.2465,0.2444,0.2443,0.2442,0.2435,0.245,0.2438,0.2421,0.2427,0.2419,0.2419,0.242,0.2419,0.2416,0.2422,0.2422,0.2411,0.2411,0.2411,0.2411,0,0,0,0,0,0,0,0.2467,0.2465,0.2449,0.2444,0.2443,0.2447,0.2444,0.2447,0.2425,0.2426,0.2425,0.2427,0.2419,0.2416,0.2416,0.2422,0.2411,0.2411,0.2411,0.2411,0.2496,0.2498,0,0,0,0,0,0,0.2471,0.2466,0.245,0.2449,0.2455,0.2447,0.2444,0.2437,0.2425,0.2423,0.2427,0.2426,0.2416,0.2416,0.2416,0.2462,0.2411,0.2411,0.2411,0.2493,0.2496,0.2498,0,0,0,0,0,0,0.2471,0.2469,0.245,0.2459,0.2457,0.2447,0.2439,0.2437,0.2437,0.2426,0.2424,0.243,0.2416,0.2415,0.2431,0.246,0.2411,0.2411,0.2491,0.2494,0.2497,0.2535,0,0,0,0,0,0,0.2472,0.2469,0.2469,0.2459,0.2457,0.246,0.244,0.2437,0.2439,0.2437,0.2428,0.2426,0.2415,0.2431,0.2431,0.246,0.2411,0.2488,0.2492,0.2496,0.2531,0.2539,0.2546,0,0,0,0,0,0.2472,0.2474,0.2469,0.2467,0.2455,0.2461,0.246,0.245,0.244,0.2446,0.2444,0.2427,0.2458,0.2432,0.2432,0.2461,0.2486,0.2491,0.2496,0.2528,0.2538,0.2546,0,0,0,0,0,0,0.2482,0.2472,0.2465,0.2463,0.2466,0.2457,0.2463,0.2456,0.2459,0.2457,0.2443,0.2442,0.2477,0.2467,0.2439,0.2503,0.2474,0.2479,0.2498,0.2508,0.2515,0.2531,0.2411,0,0,0,0,0,0.2485,0.2483,0.2478,0.2477,0.248,0.2473,0.2475,0.247,0.247,0.2469,0.2464,0.2472,0.2498,0.2498,0.2517,0.2535,0.2571,0.2561,0.2568,0.2575,0.2591,0.2699,0.2718,0.2514,0.2514,0.2514,0,0,0.2487,0.2483,0.248,0.248,0.2479,0.2489,0.2473,0.248,0.2492,0.247,0.2485,0.2501,0.2514,0.2547,0.256,0.2536,0.2647,0.2581,0.2585,0.2599,0.2706,0.2726,0.2744,0.2518,0.2517,0.2517,0,0,0.2492,0.2489,0.2489,0.2497,0.2504,0.2505,0.251,0.2509,0.2514,0.2531,0.2536,0.2569,0.2579,0.2604,0.2617,0.2679,0.2694,0.2685,0.2719,0.2824,0.2842,0.2858,0.2905,0.2925,0.2676,0.2676,0.2676,0,0.2496,0.2492,0.2493,0.2503,0.2511,0.2515,0.2525,0.2537,0.2543,0.2563,0.2543,0.2613,0.2613,0.2681,0.27,0.2696,0.2744,0.2676,0.2834,0.2851,0.2867,0.2912,0.2933,0.2678,0.2678,0.2678,0.2678,0,0.2501,0.2505,0.2511,0.2521,0.2535,0.2547,0.2565,0.2586,0.2592,0.2608,0.2674,0.2688,0.2733,0.2741,0.2732,0.2846,0.2838,0.2841,0.2808,0.289,0.2931,0.2953,0.2682,0.2681,0.268,0.268,0,0,0.2486,0.2507,0.2509,0.2516,0.2545,0.2553,0.2595,0.2635,0.2676,0.2697,0.2764,0.2803,0.2824,0.2844,0.2852,0.2925,0.3056,0.2927,0.2931,0.2967,0.3265,0.306,0.3063,0.3098,0.3103,0.3106,0.3239,0,0.2487,0.2499,0.2518,0.2539,0.2545,0.2581,0.2623,0.2667,0.2709,0.278,0.2828,0.2895,0.286,0.2896,0.2968,0.3055,0.3121,0.3018,0.3187,0.3191,0.2994,0.3085,0.2847,0.2929,0.3261,0.3264,0.3267,0,0.2479,0.2488,0.2502,0.2544,0.2554,0.2577,0.2652,0.2693,0.2804,0.2848,0.293,0.2979,0.3089,0.3054,0.323,0.3173,0.3225,0.3273,0.328,0.3093,0.3027,0.2908,0.2957,0.2857,0.3301,0.3298,0.3295,0,0.2446,0.2478,0.2485,0.2497,0.255,0.2576,0.2615,0.2709,0.2774,0.2907,0.2985,0.3103,0.3185,0.3292,0.3359,0.3329,0.355,0.3521,0.3379,0.3363,0.3194,0.3154,0.3159,0.3662,0.3661,0.3661,0.3661,0,0.2429,0.2434,0.2468,0.247,0.2504,0.2553,0.2622,0.2686,0.282,0.2912,0.3019,0.3113,0.326,0.338,0.343,0.3457,0.3609,0.3404,0.34,0.3193,0.3153,0.3081,0.3065,0.3666,0.3665,0.3664,0.3663,0,0.2385,0.2406,0.2417,0.2465,0.2483,0.2507,0.2616,0.2685,0.2809,0.2944,0.3,0.3177,0.3305,0.3412,0.3586,0.3521,0.345,0.3556,0.326,0.3214,0.2899,0.2893,0.2785,0.2728,0.3409,0.3405,0.3402,0,0.2361,0.2359,0.2398,0.2414,0.2434,0.2486,0.254,0.2662,0.2748,0.2957,0.3028,0.3195,0.3257,0.3398,0.3354,0.3381,0.3337,0.315,0.3025,0.2855,0.2852,0.2742,0.2699,0.2829,0.2821,0.2815,0.2809,0,0.2319,0.2334,0.2345,0.238,0.2419,0.248,0.2561,0.2624,0.2779,0.2888,0.3027,0.309,0.3151,0.3039,0.3025,0.301,0.2917,0.3008,0.296,0.249,0.2257,0.2205,0.2744,0.2752,0.2758,0.2762,0.2765,0.2767,0.2291,0.229,0.2315,0.2343,0.2399,0.2467,0.249,0.2582,0.2684,0.278,0.2907,0.2885,0.2784,0.2695,0.267,0.2397,0.2501,0.2258,0.2298,0.2228,0.2053,0.2407,0.2317,0.232,0.2322,0.2325,0.2327,0,0.2251,0.2259,0.2286,0.2322,0.2365,0.2417,0.2504,0.2506,0.2554,0.2579,0.2631,0.2442,0.2249,0.2151,0.1868,0.1718,0.1666,0.1666,0.1519,0.1546,0.1973,0.1822,0.1465,0.1465,0.1465,0.1465,0.1465,0.1465,0.2233,0.2227,0.2237,0.2275,0.2311,0.2335,0.2361,0.2353,0.2338,0.2196,0.2026,0.1979,0.1826,0.1546,0.1296,0.1266,0.1213,0.103,0.1186,0.152,0.158,0.1637,0.1492,0.1071,0.1071,0.062,0.0616,0.0614]},{"header":{"parameterUnit":"m.s-1","parameterCategory":2,"la1":30.2991,"la2":30.254,"lo1":-89.0895,"lo2":-89.0444,"dy":0.0017,"dx":0.0017,"nx":28,"ny":28,"refTime":"2024-04-24T21:00:00:Z","depth":"0","parameterNumber":3,"parameterNumberName":"V-component_of_CURRENTS"},"data":[0,0,0,0,0,0,0,0,0,0,0,0,0,0,0,0,0,0,0,0,0,0,0,0,0,0,0,0,0,0,0,0,0,0,0,0,0,0,0,0,0,0,0,0,0,0,0,0,0,0,0,0,0,0,0,0,0,0,0.0357,0.0357,0,0.0355,0.0355,0.0355,0.0344,0.0344,0.0344,0.0344,0.0327,0.0327,0.0326,0,0,0,0,0,0,0,0,0,0,0,0,0,0.034,0.034,0.0357,0.0357,0.0357,0.0355,0.0355,0.0355,0.0344,0.0344,0.0344,0.0343,0.0327,0.0327,0.0326,0,0,0,0,0,0,0,0,0,0,0,0,0,0.0343,0.0341,0.0357,0.0352,0.0352,0.0355,0.0355,0.0355,0.0344,0.0344,0.0344,0.0343,0.0327,0.0327,0.0326,0.0331,0,0,0.0325,0.0325,0,0,0,0,0,0,0,0,0.0343,0.0344,0.0353,0.0352,0.0352,0.035,0.0343,0.0346,0.0344,0.0347,0.0344,0.0343,0.0334,0.0333,0.0333,0.033,0.0329,0.0325,0.0325,0.0325,0.0325,0,0,0,0,0,0,0,0.0343,0.0344,0.0356,0.0353,0.0352,0.0345,0.0346,0.0343,0.0342,0.0346,0.0346,0.0346,0.0333,0.0333,0.0332,0.0329,0.0325,0.0325,0.0325,0.0324,0.0343,0.0343,0,0,0,0,0,0,0.0345,0.0344,0.0356,0.0356,0.0347,0.0346,0.0346,0.0351,0.0342,0.034,0.0346,0.0346,0.0334,0.0333,0.0332,0.0356,0.0325,0.0324,0.0324,0.0342,0.0343,0.0344,0,0,0,0,0,0,0.0345,0.0346,0.0356,0.035,0.0351,0.0347,0.0352,0.0351,0.0352,0.0342,0.034,0.0348,0.0334,0.0332,0.0335,0.0355,0.0324,0.0324,0.0341,0.0342,0.0343,0.0392,0,0,0,0,0,0,0.0344,0.0346,0.035,0.035,0.0351,0.0363,0.0352,0.0351,0.0352,0.0351,0.0343,0.0341,0.0333,0.0335,0.0334,0.0354,0.0324,0.034,0.0342,0.0343,0.039,0.0395,0.0399,0,0,0,0,0,0.0344,0.0353,0.0351,0.0352,0.0357,0.0364,0.0364,0.0359,0.0353,0.0358,0.0352,0.0341,0.0343,0.0336,0.0334,0.0354,0.034,0.0341,0.0343,0.0388,0.0394,0.0399,0,0,0,0,0,0,0.0347,0.0353,0.035,0.036,0.0363,0.0362,0.0367,0.0362,0.0362,0.0361,0.0348,0.0347,0.0358,0.0347,0.0339,0.0363,0.034,0.0342,0.0375,0.0381,0.0386,0.0402,0.0323,0,0,0,0,0,0.035,0.0359,0.0361,0.0369,0.0372,0.0369,0.0371,0.0369,0.0368,0.0368,0.0363,0.0359,0.0364,0.0364,0.0364,0.0374,0.0382,0.0386,0.0391,0.0395,0.0408,0.0443,0.0453,0.0349,0.0349,0.0349,0,0,0.0353,0.0358,0.0362,0.0371,0.0373,0.0388,0.037,0.0377,0.0393,0.0366,0.0384,0.0376,0.037,0.0385,0.039,0.0378,0.0427,0.0397,0.0401,0.0411,0.0446,0.0456,0.0465,0.035,0.035,0.0349,0,0,0.0369,0.037,0.0385,0.0391,0.0397,0.04,0.0404,0.0406,0.0409,0.0421,0.0411,0.0416,0.0416,0.0422,0.0423,0.0453,0.0451,0.045,0.0489,0.0523,0.0532,0.054,0.0558,0.0567,0.0452,0.0452,0.0453,0,0.0372,0.0394,0.0389,0.0407,0.0419,0.0409,0.0432,0.0436,0.0439,0.0451,0.0433,0.0452,0.0438,0.0471,0.0477,0.0466,0.048,0.0468,0.0531,0.0539,0.0546,0.0562,0.0572,0.0455,0.0455,0.0454,0.0454,0,0.0402,0.042,0.0431,0.0453,0.0464,0.0482,0.0488,0.05,0.05,0.0505,0.0531,0.0517,0.0533,0.0525,0.0508,0.0556,0.0547,0.0534,0.0519,0.056,0.0574,0.0583,0.0459,0.0458,0.0457,0.0456,0,0,0.0414,0.0446,0.0452,0.0475,0.0492,0.0508,0.0536,0.0564,0.0597,0.0589,0.0639,0.0625,0.0619,0.0621,0.0605,0.0622,0.0674,0.0602,0.0603,0.0625,0.0747,0.0707,0.0713,0.0678,0.068,0.0681,0.0733,0,0.0443,0.0489,0.0497,0.0546,0.0573,0.0579,0.0611,0.0633,0.0649,0.0693,0.0683,0.072,0.0658,0.0678,0.0683,0.0691,0.0702,0.0661,0.0699,0.07,0.0665,0.0724,0.0715,0.0759,0.0742,0.0744,0.0745,0,0.0476,0.0505,0.0556,0.0608,0.062,0.0647,0.0707,0.0735,0.0781,0.0799,0.0822,0.0824,0.0854,0.0798,0.082,0.0801,0.0777,0.0766,0.0767,0.0722,0.0678,0.0715,0.0776,0.0753,0.0759,0.0758,0.0757,0,0.05,0.0551,0.0597,0.0612,0.0662,0.0691,0.0722,0.0767,0.082,0.088,0.0941,0.0946,0.0997,0.0963,0.0926,0.0888,0.0954,0.09,0.0836,0.0832,0.0828,0.0821,0.0878,0.0916,0.0916,0.0916,0.0916,0,0.0535,0.0572,0.0613,0.0639,0.0705,0.0725,0.0805,0.0836,0.0915,0.1014,0.1004,0.1098,0.1048,0.1073,0.0991,0.0957,0.1008,0.0862,0.0854,0.0842,0.0835,0.0815,0.0794,0.0918,0.0917,0.0917,0.0916,0,0.0558,0.0582,0.0639,0.0696,0.0719,0.0767,0.0863,0.093,0.0997,0.1136,0.1174,0.125,0.1287,0.1213,0.1189,0.1073,0.1003,0.0985,0.0964,0.0951,0.0825,0.0807,0.0855,0.0859,0.0918,0.0917,0.0917,0,0.0575,0.0606,0.0678,0.072,0.0748,0.0823,0.0886,0.0962,0.1054,0.1241,0.133,0.1414,0.1492,0.1423,0.1243,0.1101,0.1048,0.0975,0.0884,0.084,0.0815,0.0803,0.0803,0.09,0.0899,0.0899,0.0898,0,0.0607,0.063,0.0676,0.0763,0.0832,0.0924,0.1027,0.1116,0.1247,0.1397,0.1589,0.167,0.1605,0.1486,0.1275,0.115,0.0963,0.0958,0.0942,0.0834,0.0803,0.0795,0.0831,0.0894,0.0895,0.0895,0.0895,0.0895,0.0628,0.0665,0.0728,0.081,0.0901,0.103,0.1126,0.1274,0.1462,0.1702,0.1755,0.1877,0.1682,0.1401,0.1253,0.0946,0.0954,0.0832,0.0822,0.0822,0.0803,0.0813,0.0842,0.0842,0.0842,0.0842,0.0842,0,0.0653,0.0698,0.0775,0.0885,0.0995,0.104,0.1229,0.136,0.1607,0.179,0.1959,0.1875,0.1677,0.1402,0.1007,0.0843,0.0791,0.0764,0.0764,0.0776,0.0817,0.079,0.0776,0.0776,0.0776,0.0776,0.0776,0.0776,0.0669,0.0734,0.0773,0.0943,0.1034,0.1205,0.1323,0.1546,0.1704,0.1918,0.1941,0.1937,0.1714,0.1199,0.088,0.0802,0.0756,0.0697,0.0704,0.0731,0.0737,0.0743,0.0715,0.0685,0.0684,0.0678,0.0678,0.0678]}],[{"header":{"parameterUnit":"m.s-1","parameterCategory":2,"la1":30.2991,"la2":30.254,"lo1":-89.0895,"lo2":-89.0444,"dy":0.0017,"dx":0.0017,"nx":28,"ny":28,"refTime":"2024-04-24T21:00:00:Z","depth":"2","parameterNumber":2,"parameterNumberName":"U-component_of_CURRENTS"},"data":[0,0,0,0,0,0,0,0,0,0,0,0,0,0,0,0,0,0,0,0,0,0,0,0,0,0,0,0,0,0,0,0,0,0,0,0,0,0,0,0,0,0,0,0,0,0,0,0,0,0,0,0,0,0,0,0,0,0,0.2082,0.2082,0,0.207,0.207,0.2069,0.2059,0.2059,0.2059,0.2059,0.2063,0.2063,0.2063,0,0,0,0,0,0,0,0,0,0,0,0,0,0.2112,0.2111,0.2082,0.2082,0.2082,0.207,0.207,0.2069,0.2059,0.2059,0.2059,0.2059,0.2063,0.2063,0.2063,0,0,0,0,0,0,0,0,0,0,0,0,0,0.2098,0.2111,0.2082,0.2077,0.2076,0.207,0.207,0.2069,0.2059,0.2059,0.2059,0.2059,0.2063,0.2063,0.2063,0.2064,0,0,0.2064,0.2064,0,0,0,0,0,0,0,0,0.2099,0.2097,0.2077,0.2077,0.2076,0.2067,0.2081,0.2069,0.2059,0.2064,0.2059,0.2059,0.2067,0.2067,0.2062,0.2064,0.2064,0.2064,0.2064,0.2064,0.2064,0,0,0,0,0,0,0,0.21,0.2097,0.2076,0.2077,0.2077,0.208,0.2077,0.2079,0.2065,0.2064,0.2064,0.2064,0.2066,0.2062,0.2062,0.2064,0.2064,0.2064,0.2064,0.2064,0.212,0.2121,0,0,0,0,0,0,0.2103,0.2098,0.2077,0.2076,0.2089,0.2079,0.2077,0.2069,0.2065,0.2064,0.2064,0.2064,0.2062,0.2062,0.2063,0.2113,0.2064,0.2064,0.2064,0.2119,0.212,0.2122,0,0,0,0,0,0,0.2103,0.21,0.2077,0.2088,0.2086,0.2079,0.207,0.2069,0.2076,0.2065,0.2064,0.2074,0.2062,0.2062,0.2078,0.2111,0.2064,0.2064,0.2117,0.2119,0.2121,0.2182,0,0,0,0,0,0,0.2104,0.21,0.2103,0.2088,0.2085,0.2086,0.207,0.2069,0.2076,0.2076,0.2073,0.2073,0.2062,0.2078,0.2078,0.2111,0.2064,0.2115,0.2118,0.212,0.2178,0.2186,0.2192,0,0,0,0,0,0.2105,0.2105,0.2103,0.2101,0.2086,0.2087,0.2086,0.208,0.2077,0.2086,0.2085,0.2073,0.2095,0.2079,0.2079,0.2112,0.2114,0.2117,0.212,0.2175,0.2184,0.2192,0,0,0,0,0,0,0.2119,0.2104,0.2101,0.2097,0.2099,0.2086,0.2093,0.209,0.2094,0.2097,0.2085,0.2085,0.2115,0.2104,0.2086,0.2137,0.2105,0.2109,0.2147,0.2156,0.2163,0.216,0.2064,0,0,0,0,0,0.2123,0.212,0.2112,0.2111,0.2113,0.2107,0.2109,0.2106,0.2105,0.2107,0.2105,0.211,0.2126,0.2132,0.2138,0.2161,0.2179,0.2185,0.2192,0.2198,0.2196,0.2278,0.2293,0.2132,0.2132,0.2132,0,0,0.2127,0.2121,0.2118,0.2115,0.2114,0.2119,0.2108,0.2116,0.2128,0.2108,0.2126,0.2134,0.2138,0.2166,0.2179,0.2162,0.2252,0.2202,0.2207,0.2202,0.2283,0.2299,0.2313,0.2134,0.2134,0.2134,0,0,0.2133,0.213,0.213,0.2135,0.214,0.2138,0.2145,0.2143,0.2153,0.2168,0.2168,0.2194,0.2201,0.2219,0.2227,0.2277,0.2289,0.2285,0.2318,0.2398,0.2412,0.2424,0.2463,0.2478,0.2288,0.2288,0.2288,0,0.2142,0.2134,0.2133,0.2139,0.2145,0.2149,0.2157,0.2169,0.2174,0.219,0.2181,0.2225,0.2227,0.2279,0.2296,0.2294,0.2331,0.2285,0.2409,0.2421,0.2433,0.2469,0.2486,0.2291,0.2291,0.229,0.229,0,0.2142,0.2144,0.2148,0.2153,0.2165,0.2174,0.219,0.221,0.2221,0.2229,0.2281,0.2293,0.232,0.2334,0.2326,0.2415,0.241,0.2412,0.2388,0.2454,0.2487,0.2503,0.2296,0.2295,0.2294,0.2293,0,0,0.2135,0.2145,0.2147,0.2152,0.2174,0.2179,0.2217,0.2246,0.2274,0.2298,0.235,0.2378,0.2393,0.2404,0.2418,0.2479,0.2589,0.2483,0.2486,0.2522,0.2753,0.2585,0.2586,0.2628,0.2631,0.2634,0.274,0,0.2136,0.2143,0.2154,0.2169,0.2174,0.2202,0.2232,0.2266,0.23,0.2355,0.2398,0.2449,0.2421,0.2456,0.2513,0.2576,0.2636,0.2558,0.2682,0.2684,0.253,0.2601,0.235,0.241,0.2756,0.2758,0.276,0,0.2127,0.2135,0.2146,0.2173,0.218,0.2198,0.2254,0.2284,0.2365,0.24,0.2464,0.2504,0.2593,0.2574,0.2702,0.2661,0.271,0.275,0.2755,0.2586,0.2547,0.2402,0.2426,0.2787,0.2785,0.2783,0.2781,0,0.2106,0.2128,0.2136,0.2144,0.2177,0.2203,0.2233,0.2297,0.2344,0.2452,0.2512,0.2596,0.2675,0.2749,0.2803,0.2783,0.2946,0.293,0.282,0.2808,0.2607,0.257,0.3038,0.3038,0.3037,0.3037,0.3037,0,0.209,0.2095,0.2128,0.2129,0.2155,0.2192,0.2236,0.2286,0.2387,0.2447,0.2541,0.2611,0.2734,0.2826,0.2856,0.2869,0.299,0.2831,0.2832,0.2616,0.258,0.2911,0.2895,0.3041,0.304,0.3039,0.3039,0,0.2054,0.2073,0.2081,0.2122,0.214,0.2161,0.224,0.2277,0.238,0.2482,0.2535,0.2677,0.2762,0.2847,0.2976,0.2925,0.2964,0.2945,0.2651,0.2613,0.276,0.2746,0.2832,0.2827,0.2823,0.2819,0.2816,0,0.2033,0.2032,0.2068,0.2083,0.2103,0.2143,0.2172,0.2264,0.2315,0.2489,0.2541,0.2682,0.2718,0.2815,0.2766,0.2774,0.2895,0.2549,0.2441,0.275,0.2744,0.2737,0.2728,0.2214,0.2206,0.22,0.2195,0,0.1995,0.2008,0.2015,0.2044,0.2072,0.2097,0.2154,0.2198,0.231,0.2393,0.2503,0.2557,0.2609,0.247,0.2457,0.243,0.2512,0.2416,0.2874,0.2274,0.2168,0.2161,0.2174,0.214,0.2146,0.215,0.2153,0.2155,0.1968,0.1963,0.1977,0.1997,0.2034,0.2052,0.2044,0.2094,0.2146,0.2215,0.234,0.2316,0.2311,0.2125,0.2045,0.1976,0.2157,0.2062,0.2082,0.2109,0.1988,0.1877,0.1771,0.1775,0.1777,0.178,0.1782,0,0.1925,0.1927,0.1938,0.1937,0.1942,0.2001,0.2029,0.1982,0.1977,0.2015,0.2044,0.184,0.1699,0.1715,0.1495,0.1452,0.1465,0.1404,0.1411,0.1465,0.1513,0.1363,0.0981,0.0979,0.0977,0.0975,0,0,0.1907,0.1885,0.188,0.1849,0.1872,0.1852,0.1861,0.1769,0.1746,0.1649,0.1586,0.1656,0.1676,0.1334,0.1248,0.1084,0.1285,0.1035,0.1674,0.1739,0.1786,0.188,0.1707,0,0,0,0,0]},{"header":{"parameterUnit":"m.s-1","parameterCategory":2,"la1":30.2991,"la2":30.254,"lo1":-89.0895,"lo2":-89.0444,"dy":0.0017,"dx":0.0017,"nx":28,"ny":28,"refTime":"2024-04-24T21:00:00:Z","depth":"2","parameterNumber":3,"parameterNumberName":"V-component_of_CURRENTS"},"data":[0,0,0,0,0,0,0,0,0,0,0,0,0,0,0,0,0,0,0,0,0,0,0,0,0,0,0,0,0,0,0,0,0,0,0,0,0,0,0,0,0,0,0,0,0,0,0,0,0,0,0,0,0,0,0,0,0,0,0.0168,0.0168,0,0.0162,0.0162,0.0162,0.0156,0.0156,0.0156,0.0156,0.0143,0.0143,0.0143,0,0,0,0,0,0,0,0,0,0,0,0,0,0.0159,0.016,0.0168,0.0168,0.0168,0.0162,0.0162,0.0162,0.0156,0.0156,0.0156,0.0156,0.0143,0.0143,0.0143,0,0,0,0,0,0,0,0,0,0,0,0,0,0.0159,0.016,0.0168,0.0164,0.0164,0.0162,0.0162,0.0162,0.0156,0.0156,0.0156,0.0156,0.0143,0.0143,0.0143,0.0142,0,0,0.0141,0.0141,0,0,0,0,0,0,0,0,0.0159,0.016,0.0165,0.0165,0.0164,0.016,0.0154,0.0155,0.0156,0.0159,0.0156,0.0156,0.0148,0.0147,0.0147,0.0141,0.0141,0.0141,0.0141,0.0141,0.0141,0,0,0,0,0,0,0,0.0159,0.016,0.0166,0.0165,0.0164,0.0158,0.0158,0.0154,0.0154,0.0159,0.0159,0.0158,0.0148,0.0147,0.0146,0.0141,0.0141,0.0141,0.0141,0.014,0.0142,0.0143,0,0,0,0,0,0,0.0161,0.016,0.0166,0.0166,0.0161,0.0158,0.0158,0.0161,0.0154,0.0153,0.0158,0.0158,0.0148,0.0147,0.0146,0.0165,0.0141,0.014,0.014,0.0142,0.0142,0.0143,0,0,0,0,0,0,0.0161,0.0162,0.0166,0.0162,0.0162,0.0159,0.0162,0.0161,0.0163,0.0154,0.0153,0.0161,0.0148,0.0146,0.0148,0.0163,0.014,0.014,0.0142,0.0142,0.0143,0.019,0,0,0,0,0,0,0.0161,0.0162,0.0165,0.0163,0.0163,0.017,0.0162,0.0161,0.0163,0.0162,0.0156,0.0154,0.0147,0.0149,0.0148,0.0162,0.0139,0.0141,0.0142,0.0143,0.0188,0.0192,0.0195,0,0,0,0,0,0.0161,0.0167,0.0166,0.0166,0.0168,0.0171,0.017,0.0167,0.0163,0.0167,0.0163,0.0155,0.0152,0.0149,0.0148,0.0162,0.0141,0.0142,0.0142,0.0186,0.0191,0.0195,0,0,0,0,0,0,0.0164,0.0167,0.0165,0.0172,0.0173,0.017,0.0173,0.017,0.017,0.017,0.016,0.0158,0.0164,0.0154,0.0152,0.0163,0.0145,0.0145,0.0178,0.0183,0.0186,0.0196,0.0139,0,0,0,0,0,0.0166,0.0173,0.0173,0.0179,0.018,0.0177,0.0178,0.0177,0.0175,0.0175,0.0171,0.0166,0.0165,0.0167,0.0162,0.017,0.0165,0.0177,0.0181,0.0184,0.019,0.02,0.0206,0.0145,0.0145,0.0145,0,0,0.0169,0.0172,0.0175,0.018,0.0181,0.0192,0.0178,0.0183,0.0195,0.0174,0.0188,0.0177,0.0169,0.0178,0.018,0.0174,0.0198,0.0185,0.0188,0.0193,0.0202,0.0208,0.0213,0.0146,0.0145,0.0145,0,0,0.0181,0.0181,0.0193,0.0197,0.0201,0.0202,0.0205,0.0205,0.0209,0.0218,0.0207,0.0207,0.0204,0.0205,0.0205,0.0224,0.0214,0.022,0.0253,0.0263,0.0268,0.0273,0.0273,0.0277,0.0226,0.0226,0.0226,0,0.0184,0.0201,0.0196,0.0209,0.0219,0.021,0.0228,0.023,0.0232,0.0241,0.0227,0.0231,0.0219,0.024,0.0244,0.0235,0.0235,0.0239,0.0269,0.0274,0.0278,0.0276,0.028,0.0229,0.0228,0.0228,0.0228,0,0.0207,0.0221,0.0228,0.0246,0.0254,0.0268,0.0272,0.0282,0.0282,0.0284,0.0298,0.0283,0.0289,0.0282,0.0269,0.0294,0.0283,0.0271,0.0262,0.0287,0.0283,0.0287,0.0232,0.0231,0.023,0.023,0,0,0.0217,0.0241,0.0245,0.0265,0.0278,0.0291,0.0312,0.0334,0.0358,0.0349,0.0384,0.0366,0.0357,0.0355,0.034,0.0343,0.0364,0.0322,0.0322,0.0328,0.0383,0.0355,0.0355,0.0362,0.0363,0.0363,0.0368,0,0.0241,0.0277,0.0282,0.0323,0.0345,0.0349,0.0374,0.039,0.04,0.0429,0.0415,0.0437,0.0387,0.0401,0.0393,0.0376,0.0376,0.0363,0.0351,0.0351,0.0328,0.0359,0.0371,0.0375,0.0372,0.0372,0.0373,0,0.0267,0.0291,0.0333,0.0374,0.0385,0.0407,0.0454,0.0476,0.0504,0.0514,0.0524,0.0518,0.0524,0.0482,0.0459,0.0455,0.0423,0.04,0.0399,0.036,0.0329,0.0349,0.0382,0.0378,0.0378,0.0378,0.0377,0,0.029,0.0331,0.037,0.0382,0.0422,0.0448,0.0473,0.0504,0.0546,0.058,0.0623,0.0603,0.0632,0.0578,0.0521,0.0499,0.0496,0.0462,0.0403,0.04,0.04,0.0396,0.0449,0.0449,0.0449,0.0449,0.0449,0,0.0319,0.0351,0.0386,0.0408,0.0465,0.0481,0.0544,0.0567,0.0624,0.07,0.0676,0.0736,0.0661,0.065,0.0563,0.0499,0.0529,0.0417,0.0405,0.0415,0.0412,0.0405,0.0399,0.045,0.045,0.0449,0.0449,0,0.034,0.036,0.0408,0.0456,0.0477,0.052,0.0599,0.0651,0.0698,0.0804,0.0832,0.0857,0.0836,0.0744,0.0675,0.0578,0.0501,0.047,0.0479,0.0468,0.0383,0.038,0.0401,0.04,0.04,0.0399,0.0398,0,0.0354,0.038,0.0443,0.0481,0.0507,0.0571,0.0625,0.0683,0.0758,0.0886,0.0956,0.0975,0.0996,0.0864,0.0703,0.0551,0.0521,0.0454,0.0404,0.0395,0.0381,0.0379,0.0377,0.0424,0.0424,0.0424,0.0424,0,0.038,0.0401,0.0442,0.0518,0.058,0.0658,0.0748,0.0826,0.0927,0.1029,0.1165,0.1192,0.1078,0.0932,0.0709,0.0596,0.0469,0.0443,0.0462,0.0426,0.0414,0.0401,0.0399,0.0422,0.0422,0.0422,0.0422,0.0422,0.04,0.0432,0.0485,0.056,0.0639,0.0753,0.0834,0.0952,0.1094,0.125,0.1275,0.1301,0.1137,0.0839,0.0664,0.0467,0.0472,0.0383,0.0385,0.0387,0.038,0.0367,0.0364,0.0364,0.0364,0.0364,0.0364,0,0.0423,0.0461,0.0527,0.062,0.0715,0.0758,0.0924,0.1019,0.1202,0.13,0.1388,0.1213,0.1052,0.0852,0.0573,0.0403,0.0388,0.0332,0.0357,0.0361,0.0363,0.0355,0.0333,0.0332,0.0331,0.0331,0,0,0.0437,0.0493,0.0525,0.0667,0.0747,0.0891,0.0998,0.1149,0.1253,0.134,0.1339,0.1306,0.1096,0.0872,0.0655,0.0503,0.0464,0.0459,0.0504,0.0564,0.0569,0.0414,0.0407,0,0,0,0,0]}],[{"header":{"parameterUnit":"m.s-1","parameterCategory":2,"la1":30.2991,"la2":30.254,"lo1":-89.0895,"lo2":-89.0444,"dy":0.0017,"dx":0.0017,"nx":28,"ny":28,"refTime":"2024-04-24T21:00:00:Z","depth":"4","parameterNumber":2,"parameterNumberName":"U-component_of_CURRENTS"},"data":[0,0,0,0,0,0,0,0,0,0,0,0,0,0,0,0,0,0,0,0,0,0,0,0,0,0,0,0,0,0,0,0,0,0,0,0,0,0,0,0,0,0,0,0,0,0,0,0,0,0,0,0,0,0,0,0,0,0,0.1256,0.1256,0,0.1268,0.1268,0.1268,0.1297,0.1298,0.1299,0.1299,0.1326,0.1326,0.1326,0,0,0,0,0,0,0,0,0,0,0,0,0,0.1255,0.1255,0.1256,0.1257,0.1257,0.1268,0.1268,0.1268,0.1297,0.1298,0.1299,0.13,0.1326,0.1326,0.1326,0,0,0,0,0,0,0,0,0,0,0,0,0,0.1259,0.1255,0.1256,0.1274,0.1276,0.1268,0.1268,0.1268,0.1297,0.1298,0.1299,0.13,0.1326,0.1326,0.1326,0.1303,0,0,0.1326,0.1326,0,0,0,0,0,0,0,0,0.1259,0.1259,0.1271,0.1273,0.1275,0.1284,0.1277,0.1281,0.1297,0.1287,0.1299,0.1301,0.1313,0.1314,0.1312,0.1304,0.1305,0.1326,0.1326,0.1326,0.1326,0,0,0,0,0,0,0,0.1258,0.1258,0.1259,0.1271,0.1273,0.128,0.1282,0.1278,0.1293,0.1288,0.1291,0.1294,0.1314,0.1312,0.1313,0.1306,0.1326,0.1326,0.1326,0.1326,0.1377,0.1378,0,0,0,0,0,0,0.1259,0.1258,0.1259,0.126,0.1271,0.1279,0.1281,0.1278,0.1293,0.1296,0.1293,0.1295,0.1311,0.1313,0.1314,0.1365,0.1326,0.1326,0.1326,0.1376,0.1377,0.1379,0,0,0,0,0,0,0.1259,0.1258,0.1258,0.1261,0.1262,0.1278,0.1275,0.1278,0.1305,0.1296,0.13,0.1321,0.1312,0.1314,0.134,0.1364,0.1326,0.1326,0.1374,0.1376,0.1378,0.1418,0,0,0,0,0,0,0.1258,0.1258,0.1272,0.1261,0.1261,0.1273,0.1274,0.1277,0.1304,0.1308,0.132,0.1322,0.1313,0.134,0.134,0.1363,0.1326,0.1372,0.1375,0.1377,0.1415,0.1422,0.1427,0,0,0,0,0,0.1258,0.1266,0.1272,0.1273,0.1274,0.1274,0.1275,0.1289,0.1305,0.1318,0.1332,0.1324,0.1356,0.134,0.134,0.1364,0.1371,0.1374,0.1377,0.1413,0.142,0.1427,0,0,0,0,0,0,0.1274,0.1269,0.1276,0.1283,0.1289,0.128,0.1298,0.1305,0.1325,0.1341,0.1334,0.1337,0.1369,0.1363,0.1346,0.1389,0.1365,0.1368,0.1392,0.1399,0.1405,0.1416,0.1326,0,0,0,0,0,0.1283,0.1289,0.1285,0.1295,0.1301,0.1305,0.1314,0.1323,0.1331,0.1343,0.1353,0.1366,0.1375,0.1386,0.1391,0.141,0.1417,0.1428,0.1434,0.1439,0.1449,0.1482,0.1492,0.1389,0.1389,0.1389,0,0,0.1292,0.1292,0.1297,0.1301,0.1308,0.1314,0.1314,0.1334,0.1349,0.1341,0.1378,0.1387,0.1385,0.1409,0.1424,0.1411,0.1473,0.1443,0.1447,0.1455,0.1486,0.1496,0.1505,0.1391,0.1391,0.139,0,0,0.1302,0.1315,0.1322,0.1328,0.1344,0.1343,0.1356,0.1365,0.1385,0.141,0.1414,0.1442,0.1454,0.146,0.1462,0.1503,0.1502,0.1511,0.1548,0.1579,0.1588,0.1596,0.1619,0.1628,0.1514,0.1514,0.1514,0,0.132,0.132,0.1326,0.1334,0.1344,0.1359,0.1369,0.1384,0.1405,0.1422,0.1434,0.1473,0.1477,0.1501,0.1522,0.1516,0.1534,0.1518,0.1587,0.1594,0.1602,0.1623,0.1633,0.1516,0.1516,0.1516,0.1515,0,0.1321,0.1336,0.1344,0.1355,0.1368,0.1382,0.1397,0.1423,0.1451,0.1464,0.1513,0.1527,0.1551,0.1559,0.1555,0.1608,0.1604,0.1589,0.1567,0.1614,0.1634,0.1644,0.1519,0.1519,0.1518,0.1517,0,0,0.1319,0.134,0.1347,0.1354,0.1382,0.1384,0.142,0.1443,0.1466,0.1512,0.155,0.1584,0.1608,0.1614,0.1621,0.1654,0.1721,0.1654,0.1654,0.1673,0.1797,0.1645,0.1641,0.1723,0.1725,0.1727,0.1791,0,0.1321,0.1335,0.1348,0.1368,0.1373,0.1401,0.1424,0.1455,0.1491,0.1533,0.1577,0.1619,0.1623,0.1652,0.1687,0.1714,0.1749,0.1706,0.1752,0.1753,0.1609,0.1647,0.1733,0.1798,0.18,0.1801,0.1803,0,0.1311,0.1323,0.1344,0.1364,0.1371,0.139,0.1429,0.1455,0.1516,0.155,0.1611,0.1649,0.172,0.1717,0.1797,0.1774,0.1798,0.1814,0.1816,0.1667,0.1618,0.1741,0.182,0.1818,0.1817,0.1816,0.1815,0,0.1285,0.1314,0.1331,0.134,0.137,0.1394,0.1418,0.1468,0.1492,0.1582,0.1622,0.1697,0.1756,0.1804,0.1849,0.1839,0.1925,0.1907,0.179,0.178,0.1881,0.1872,0.1965,0.1965,0.1965,0.1964,0.1964,0,0.1261,0.1276,0.1325,0.133,0.1348,0.1386,0.1413,0.1452,0.1516,0.1547,0.1642,0.1681,0.1788,0.1844,0.1871,0.1853,0.1945,0.1804,0.1786,0.1896,0.1888,0.1887,0.1877,0.1967,0.1966,0.1966,0.1965,0,0.122,0.1255,0.1274,0.1321,0.1335,0.1356,0.1402,0.1411,0.1498,0.1551,0.1594,0.17,0.1771,0.1841,0.1919,0.1864,0.1871,0.1842,0.1961,0.1949,0.1704,0.1696,0.1719,0.1714,0.171,0.1707,0.1704,0,0.1194,0.1204,0.1262,0.1268,0.1293,0.1324,0.1329,0.1398,0.1417,0.1538,0.1557,0.1668,0.1726,0.1719,0.1795,0.1822,0.18,0.1787,0.1739,0.1698,0.168,0.1678,0.1675,0.1698,0.1696,0.1695,0.1694,0,0.1145,0.1186,0.1204,0.1216,0.123,0.1219,0.125,0.1256,0.1339,0.1445,0.1484,0.152,0.1586,0.1635,0.1665,0.1679,0.1783,0.1744,0.1752,0.1708,0.1672,0.1657,0.166,0.168,0.1682,0.1683,0.1684,0,0.1118,0.1121,0.1149,0.1142,0.1148,0.1099,0.1126,0.1142,0.1171,0.1326,0.1336,0.1455,0.1569,0.156,0.1586,0.1586,0.1562,0.1502,0.1523,0.1539,0.1446,0.1372,0.1278,0,0,0,0,0,0.1081,0.1064,0.1058,0.1023,0.1015,0.1011,0.1053,0.1088,0.1196,0.1187,0.1257,0.1313,0.135,0.1409,0.1374,0.1493,0.1559,0.1441,0.1498,0.1601,0.1618,0.1522,0,0,0,0,0,0,0.1052,0.1058,0.1032,0.0913,0.0866,0.0827,0.0853,0.0924,0.0931,0.1072,0.111,0.1214,0.1283,0.1362,0.1345,0.1361,0.1362,0.1519,0.1515,0.1592,0.1607,0.162,0.1527,0,0,0,0,0]},{"header":{"parameterUnit":"m.s-1","parameterCategory":2,"la1":30.2991,"la2":30.254,"lo1":-89.0895,"lo2":-89.0444,"dy":0.0017,"dx":0.0017,"nx":28,"ny":28,"refTime":"2024-04-24T21:00:00:Z","depth":"4","parameterNumber":3,"parameterNumberName":"V-component_of_CURRENTS"},"data":[0,0,0,0,0,0,0,0,0,0,0,0,0,0,0,0,0,0,0,0,0,0,0,0,0,0,0,0,0,0,0,0,0,0,0,0,0,0,0,0,0,0,0,0,0,0,0,0,0,0,0,0,0,0,0,0,0,0,0.0102,0.0102,0,0.0102,0.0102,0.0102,0.0103,0.0103,0.0103,0.0103,0.0102,0.0102,0.0102,0,0,0,0,0,0,0,0,0,0,0,0,0,0.0094,0.0094,0.0102,0.0102,0.0102,0.0102,0.0102,0.0102,0.0103,0.0103,0.0103,0.0103,0.0102,0.0102,0.0102,0,0,0,0,0,0,0,0,0,0,0,0,0,0.0096,0.0094,0.0102,0.0103,0.0103,0.0102,0.0102,0.0102,0.0103,0.0103,0.0103,0.0103,0.0102,0.0102,0.0102,0.0102,0,0,0.0102,0.0102,0,0,0,0,0,0,0,0,0.0096,0.0097,0.0103,0.0103,0.0103,0.0102,0.0099,0.0102,0.0103,0.0103,0.0103,0.0103,0.0102,0.0102,0.0102,0.0102,0.0102,0.0102,0.0102,0.0102,0.0102,0,0,0,0,0,0,0,0.0096,0.0097,0.0103,0.0103,0.0103,0.0099,0.01,0.0099,0.0103,0.0103,0.0103,0.0103,0.0102,0.0102,0.0102,0.0102,0.0102,0.0102,0.0102,0.0102,0.0108,0.0109,0,0,0,0,0,0,0.0096,0.0097,0.0103,0.0102,0.0099,0.0099,0.01,0.0103,0.0103,0.0103,0.0103,0.0103,0.0102,0.0102,0.0102,0.0118,0.0102,0.0102,0.0102,0.0108,0.0108,0.0109,0,0,0,0,0,0,0.0096,0.0097,0.0103,0.0099,0.01,0.01,0.0103,0.0103,0.0106,0.0102,0.0102,0.0106,0.0102,0.0102,0.0106,0.0117,0.0102,0.0102,0.0108,0.0108,0.0109,0.0139,0,0,0,0,0,0,0.0096,0.0097,0.01,0.0099,0.01,0.0106,0.0102,0.0103,0.0105,0.0105,0.0105,0.0105,0.0102,0.0106,0.0106,0.0117,0.0102,0.0108,0.0108,0.0108,0.0137,0.014,0.0142,0,0,0,0,0,0.0096,0.01,0.01,0.0101,0.0104,0.0106,0.0106,0.0106,0.0105,0.0109,0.0109,0.0105,0.0109,0.0107,0.0106,0.0117,0.0108,0.0108,0.0108,0.0136,0.0139,0.0142,0,0,0,0,0,0,0.0097,0.01,0.0101,0.0106,0.0107,0.0106,0.0109,0.0108,0.0111,0.0112,0.0108,0.0108,0.0115,0.011,0.0108,0.0119,0.0107,0.0107,0.0128,0.0131,0.0134,0.0142,0.0102,0,0,0,0,0,0.0099,0.0105,0.0105,0.011,0.0111,0.0111,0.0112,0.0112,0.0113,0.0115,0.0115,0.0114,0.0116,0.0119,0.0117,0.0125,0.0113,0.0131,0.0133,0.0135,0.0141,0.0132,0.0135,0.011,0.011,0.011,0,0,0.01,0.0103,0.0106,0.0111,0.0112,0.012,0.0112,0.0116,0.0126,0.0114,0.0127,0.0122,0.0119,0.0127,0.013,0.0126,0.0134,0.0136,0.0138,0.0142,0.0133,0.0136,0.0138,0.011,0.011,0.011,0,0,0.0108,0.011,0.0118,0.0122,0.0126,0.0127,0.013,0.0131,0.0135,0.0144,0.0139,0.0141,0.0143,0.0146,0.0147,0.0161,0.0144,0.0158,0.0181,0.0173,0.0175,0.0176,0.0156,0.0156,0.0162,0.0162,0.0162,0,0.011,0.0122,0.012,0.013,0.0138,0.0133,0.0146,0.0149,0.0152,0.0162,0.0152,0.016,0.0154,0.0171,0.0174,0.0168,0.0154,0.0172,0.0176,0.0178,0.0179,0.0158,0.0157,0.0164,0.0163,0.0163,0.0163,0,0.0125,0.0136,0.0141,0.0155,0.0163,0.0172,0.0177,0.0186,0.0188,0.0192,0.0205,0.0196,0.0205,0.0199,0.0191,0.0201,0.0185,0.0178,0.0171,0.0184,0.016,0.0158,0.0166,0.0165,0.0165,0.0164,0,0,0.0129,0.0148,0.0152,0.0168,0.0179,0.019,0.0207,0.0226,0.0247,0.0241,0.0266,0.0258,0.0253,0.0253,0.0243,0.0233,0.0222,0.0211,0.021,0.0193,0.0194,0.0182,0.0179,0.0216,0.0216,0.0217,0.0171,0,0.0144,0.017,0.0177,0.0209,0.0224,0.0232,0.0253,0.0269,0.0279,0.03,0.029,0.0307,0.0275,0.0284,0.0268,0.0237,0.0222,0.0235,0.0182,0.018,0.017,0.0178,0.0217,0.017,0.0169,0.0169,0.0169,0,0.0161,0.0178,0.021,0.0246,0.0255,0.0274,0.0316,0.0336,0.0358,0.0367,0.0375,0.0368,0.0359,0.033,0.0279,0.0288,0.0244,0.0212,0.021,0.0189,0.0166,0.0155,0.0166,0.0166,0.0167,0.0167,0.0167,0,0.0172,0.0205,0.0235,0.0245,0.028,0.0304,0.0328,0.0358,0.0393,0.0416,0.0441,0.042,0.0421,0.0365,0.0291,0.0289,0.0224,0.0215,0.0161,0.0159,0.017,0.0169,0.018,0.018,0.018,0.018,0.018,0,0.0188,0.0213,0.0245,0.0261,0.0308,0.0327,0.0384,0.0404,0.0451,0.05,0.0481,0.0502,0.043,0.0385,0.0308,0.0226,0.0236,0.0167,0.0151,0.0182,0.0182,0.0168,0.0167,0.0178,0.0178,0.0179,0.0179,0,0.0197,0.0215,0.0253,0.0295,0.0315,0.0351,0.0426,0.0472,0.0504,0.0569,0.0582,0.0567,0.0507,0.0421,0.0326,0.0258,0.0176,0.0143,0.0174,0.016,0.0111,0.0113,0.0089,0.0089,0.0088,0.0087,0.0087,0,0.0202,0.0222,0.0276,0.0307,0.033,0.0389,0.044,0.0495,0.0552,0.0605,0.064,0.0606,0.0579,0.0429,0.0329,0.0185,0.0162,0.0113,0.012,0.0118,0.0104,0.0107,0.0109,0.0086,0.0086,0.0086,0.0086,0,0.0213,0.0233,0.0266,0.0328,0.0383,0.0456,0.0532,0.0574,0.0646,0.0674,0.069,0.0626,0.0557,0.0434,0.032,0.0216,0.0143,0.0106,0.0107,0.0113,0.0113,0.0101,0.0104,0.0083,0.0084,0.0084,0.0084,0,0.0224,0.0247,0.0292,0.0349,0.0426,0.051,0.0544,0.0613,0.0668,0.0725,0.0719,0.0647,0.0605,0.045,0.0343,0.0241,0.0218,0.0178,0.0175,0.0176,0.0211,0.0225,0.0219,0,0,0,0,0,0.0232,0.0261,0.0312,0.0384,0.0465,0.0513,0.0608,0.0643,0.0703,0.072,0.0727,0.0662,0.0521,0.0456,0.0353,0.0327,0.0194,0.0201,0.0144,0.0072,0.0074,0.01,0,0,0,0,0,0,0.0238,0.0282,0.0308,0.041,0.0465,0.0565,0.0627,0.0665,0.0678,0.0707,0.0631,0.0618,0.0475,0.0572,0.0342,0.0314,0.026,0.0142,0.0139,0.0071,0.0073,0.0075,0.0102,0,0,0,0,0]}]]